Location: Dziadowski
(50.3833°N, 20.0333°E)
Time: 11:02:31
(UTC+00:00)

Cosmos 1758 - Pass Details

Date: 18 January 2026
Orbit: 479 x 500 km, 82.5° (Epoch: 15 February)

Event Time Altitude Azimuth Distance (km) Brightness Sun altitude
Rises 03:54:26 0° 175° (S) 2,575 6.9 -24.5°
Reaches altitude 10° 03:56:35 10° 169° (S) 1,694 6.0 -24.1°
Maximum altitude 04:00:09 47° 95° (E) 663 4.1 -23.6°
Drops below altitude 10° 04:03:43 10° 21° (NNE) 1,696 6.0 -23.0°
Sets 04:05:53 0° 15° (NNE) 2,579 6.9 -22.7°
